Satellite: PO-34
Catalog number: 25520
Epoch time:      08212.47934729
Element set:    0052
Inclination:      028.4601 deg
RA of node:       248.9373 deg
Eccentricity:    0.0005125
Arg of perigee:   038.9714 deg
Mean anomaly:     321.1250 deg
Mean motion:   15.17214038 rev/day
Decay rate:       3.35e-06 rev/day^2
Epoch rev:           53974
Checksum:              283

Satellite: ISS
Catalog number: 25544
Epoch time:      08212.83484381
Element set:    0955
Inclination:      051.6415 deg
RA of node:       152.0335 deg
Eccentricity:    0.0010007
Arg of perigee:   014.7331 deg
Mean anomaly:     090.0878 deg
Mean motion:   15.72736755 rev/day
Decay rate:      6.537e-05 rev/day^2
Epoch rev:           55540
Checksum:              287

Satellite: CO-58
Catalog number: 28895
Epoch time:      08213.74568765
Element set:      83
Inclination:      098.0952 deg
RA of node:       106.6908 deg
Eccentricity:    0.0016670
Arg of perigee:   270.4317 deg
Mean anomaly:     089.5011 deg
Mean motion:   14.59686459 rev/day
Decay rate:       1.77e-06 rev/day^2
Epoch rev:           14698
Checksum:              359

Satellite: NCUBE2
Catalog number: 28897
Epoch time:      08212.26564224
Element set:    0614
Inclination:      098.0909 deg
RA of node:       105.1714 deg
Eccentricity:    0.0016248
Arg of perigee:   278.2018 deg
Mean anomaly:     081.7330 deg
Mean motion:   14.59857681 rev/day
Decay rate:        6.5e-07 rev/day^2
Epoch rev:           13905
Checksum:              309

Satellite: FCAL
Catalog number: 29667
Epoch time:      08146.34060426
Element set:     979
Inclination:      051.6107 deg
RA of node:       065.3702 deg
Eccentricity:    0.0009039
Arg of perigee:   260.8350 deg
Mean anomaly:     099.5042 deg
Mean motion:   16.53464210 rev/day
Decay rate:  1.1864717e-01 rev/day^2
Epoch rev:            8291
Checksum:              307

Satellite: FALCON
Catalog number: 30776
Epoch time:      08212.55260197
Element set:    0377
Inclination:      035.4346 deg
RA of node:       250.4874 deg
Eccentricity:    0.0001617
Arg of perigee:   355.6568 deg
Mean anomaly:     004.4134 deg
Mean motion:   15.03026172 rev/day
Decay rate:       1.85e-06 rev/day^2
Epoch rev:           07667
Checksum:              288

Satellite: MAST
Catalog number: 31126
Epoch time:      08212.61257114
Element set:     387
Inclination:      098.0357 deg
RA of node:       275.3065 deg
Eccentricity:    0.0094294
Arg of perigee:   196.8104 deg
Mean anomaly:     162.9985 deg
Mean motion:   14.53436967 rev/day
Decay rate:        1.0e-08 rev/day^2
Epoch rev:            6832
Checksum:              307

Satellite: CAPE1
Catalog number: 31130
Epoch time:      08213.91625508
Element set:     367
Inclination:      098.0362 deg
RA of node:       275.4650 deg
Eccentricity:    0.0102597
Arg of perigee:   195.7734 deg
Mean anomaly:     164.0250 deg
Mean motion:   14.51979930 rev/day
Decay rate:       -6.2e-07 rev/day^2
Epoch rev:            6821
Checksum:              294

Satellite: CUTE1-7
Catalog number: 32785
Epoch time:      08211.40323307
Element set:    0116
Inclination:      097.9899 deg
RA of node:       271.2163 deg
Eccentricity:    0.0015420
Arg of perigee:   003.5932 deg
Mean anomaly:     356.5394 deg
Mean motion:   14.81379341 rev/day
Decay rate:       1.51e-06 rev/day^2
Epoch rev:           01365
Checksum:              290

Satellite: COMPASS
Catalog number: 32787
Epoch time:      08213.76394356
Element set:     107
Inclination:      097.9867 deg
RA of node:       273.5239 deg
Eccentricity:    0.0016105
Arg of perigee:   357.1935 deg
Mean anomaly:     002.9186 deg
Mean motion:   14.81440740 rev/day
Decay rate:       1.24e-06 rev/day^2
Epoch rev:            1400
Checksum:              295

Satellite: AAUSAT2
Catalog number: 32788
Epoch time:      08212.81149646
Element set:    0109
Inclination:      097.9875 deg
RA of node:       272.5893 deg
Eccentricity:    0.0015579
Arg of perigee:   003.8083 deg
Mean anomaly:     356.3240 deg
Mean motion:   14.81550423 rev/day
Decay rate:       3.25e-06 rev/day^2
Epoch rev:           01386
Checksum:              315

Satellite: DO-64
Catalog number: 32789
Epoch time:      08212.68423374
Element set:    0118
Inclination:      097.9904 deg
RA of node:       272.4819 deg
Eccentricity:    0.0015923
Arg of perigee:   000.5833 deg
Mean anomaly:     359.5383 deg
Mean motion:   14.81439942 rev/day
Decay rate:       4.49e-06 rev/day^2
Epoch rev:           01384
Checksum:              333

Satellite: SEEDS
Catalog number: 32791
Epoch time:      08213.77289472
Element set:     105
Inclination:      097.9886 deg
RA of node:       273.5472 deg
Eccentricity:    0.0016468
Arg of perigee:   355.3867 deg
Mean anomaly:     004.7190 deg
Mean motion:   14.81297097 rev/day
Decay rate:        7.0e-08 rev/day^2
Epoch rev:            1397
Checksum:              334

Satellite: CANX-2
Catalog number: 32797
Epoch time:      08213.63232793
Element set:      55
Inclination:      097.9887 deg
RA of node:       273.4338 deg
Eccentricity:    0.0015817
Arg of perigee:   356.6248 deg
Mean anomaly:     003.5362 deg
Mean motion:   14.81373642 rev/day
Decay rate:       1.33e-06 rev/day^2
Epoch rev:            1266
Checksum:              313

